M I D A S
Marine Information and Data Acquisition System
Tripno 1712 of the Zeeleeuw from 2009-06-18 03:42:29 to 2009-06-18 13:24:37
Back to CruiseResearch ActivitiesStationsMapUnderway DataData graphs

EquipmentUnitsComments
TimeDGPSUTC
LatitudeDGPSDM.mWGS84
LongitudeDGPSDM.mWGS84
SpeedMeteo Stationm/sRelative wind speed
DirectionMeteo StationdegRelative wind direction
TemperatureMeteo Stationdeg CelciusAir temperature
PressureMeteo StationPaAtmospheric pressure
HumidityMeteo Station%Relative humidity
Missing or incorrect values are displayed as -999
Metereological data collected by the RV Zeeleeuw from 2009-06-18 03:35:18 to 2009-06-18 13:55:10
Time Latitude Longitude Speed Direction Temperature Pressure Humidity
2009-06-18 03:36 51°13.678 2°55.895 6.9 80 16.2 101630 86
2009-06-18 03:37 51°13.694 2°55.812 6.8 83 16.3 101640 83
2009-06-18 03:38 51°13.703 2°55.776 4.9 77 16.3 101640 83
2009-06-18 03:39 51°13.7 2°55.76 3.6 286 16.3 101640 83
2009-06-18 03:40 51°13.7 2°55.763 4.2 280 16.2 101640 83
2009-06-18 03:41 51°13.717 2°55.754 6.9 280 16.2 101640 84
2009-06-18 03:42 51°13.8 2°55.662 6.6 286 16.2 101630 84
2009-06-18 03:43 51°13.924 2°55.56 8.1 281 16.1 101630 83
2009-06-18 03:44 51°14.06 2°55.457 6.2 285 16.1 101630 84
2009-06-18 03:45 51°14.195 2°55.34 12.2 286 16.1 101640 84
2009-06-18 03:46 51°14.315 2°55.161 12.7 278 16 101620 84
2009-06-18 03:47 51°14.432 2°54.942 14.4 282 16.1 101600 85
2009-06-18 03:48 51°14.533 2°54.694 13.5 286 16 101600 85
2009-06-18 03:49 51°14.589 2°54.405 13.2 281 16 101590 86
2009-06-18 03:50 51°14.616 2°54.099 15.6 282 15.9 101590 85
2009-06-18 03:51 51°14.653 2°53.799 14.8 327 15.9 101590 85
2009-06-18 03:52 51°14.691 2°53.502 13.4 300 15.9 101600 86
2009-06-18 03:53 51°14.733 2°53.205 14.9 327 15.8 101600 85
2009-06-18 03:54 51°14.773 2°52.909 16.6 326 15.8 101620 85
2009-06-18 03:55 51°14.814 2°52.614 14 302 15.8 101610 85
2009-06-18 03:56 51°14.855 2°52.319 12.8 327 15.8 101600 85
2009-06-18 03:57 51°14.896 2°52.023 17.5 328 15.8 101610 85
2009-06-18 03:58 51°14.939 2°51.728 15.5 328 15.7 101620 85
2009-06-18 03:59 51°14.977 2°51.432 13.4 329 15.7 101630 85
2009-06-18 04:00 51°15.017 2°51.134 15.9 328 15.7 101620 85
2009-06-18 04:01 51°15.053 2°50.831 15.3 333 15.7 101610 85
2009-06-18 04:02 51°15.098 2°50.535 14.8 327 15.7 101610 85
2009-06-18 04:03 51°15.156 2°50.244 13.7 327 15.6 101610 85
2009-06-18 04:04 51°15.214 2°49.953 13.4 301 15.6 101610 84
2009-06-18 04:05 51°15.273 2°49.663 11.9 329 15.6 101610 84
2009-06-18 04:06 51°15.329 2°49.369 12.4 327 15.6 101620 84
2009-06-18 04:07 51°15.384 2°49.078 12.2 329 15.6 101610 84
2009-06-18 04:08 51°15.437 2°48.788 14 329 15.6 101620 84
2009-06-18 04:09 51°15.499 2°48.505 12 328 15.6 101600 84
2009-06-18 04:10 51°15.564 2°48.223 11.4 329 15.6 101630 83
2009-06-18 04:11 51°15.625 2°47.936 13 330 15.6 101620 84
2009-06-18 04:12 51°15.689 2°47.649 15 330 15.5 101640 83
2009-06-18 04:13 51°15.762 2°47.369 14.7 330 15.5 101630 83
2009-06-18 04:14 51°15.836 2°47.091 14 330 15.5 101630 83
2009-06-18 04:15 51°15.913 2°46.817 14.1 329 15.5 101620 83
2009-06-18 04:16 51°15.998 2°46.552 14.9 329 15.5 101630 83
2009-06-18 04:17 51°16.082 2°46.285 13.8 330 15.4 101640 83
2009-06-18 04:18 51°16.164 2°46.019 14.4 328 15.4 101630 83
2009-06-18 04:19 51°16.244 2°45.754 12.7 330 15.4 101630 83
2009-06-18 04:20 51°16.339 2°45.506 10.7 325 15.4 101630 82
2009-06-18 04:21 51°16.447 2°45.267 12.6 326 15.4 101620 83
2009-06-18 04:22 51°16.551 2°45.033 12.4 303 15.4 101620 83
2009-06-18 04:23 51°16.654 2°44.791 14.6 324 15.4 101620 83
2009-06-18 04:24 51°16.762 2°44.546 13.3 306 15.4 101620 82
2009-06-18 04:25 51°16.865 2°44.305 12.8 302 15.4 101630 82
2009-06-18 04:26 51°16.968 2°44.056 14.9 324 15.4 101620 82
2009-06-18 04:27 51°17.072 2°43.808 14.3 304 15.4 101620 82
2009-06-18 04:28 51°17.176 2°43.56 14.4 325 15.4 101610 83
2009-06-18 04:29 51°17.28 2°43.313 14.2 329 15.4 101620 83
2009-06-18 04:30 51°17.387 2°43.065 13.6 326 15.4 101610 82
2009-06-18 04:31 51°17.494 2°42.829 11.6 302 15.4 101630 82
2009-06-18 04:32 51°17.605 2°42.587 14.1 328 15.4 101630 83
2009-06-18 04:33 51°17.717 2°42.338 13.9 326 15.4 101610 82
2009-06-18 04:34 51°17.825 2°42.097 12.8 326 15.4 101640 83
2009-06-18 04:35 51°17.933 2°41.85 13.6 326 15.4 101620 82
2009-06-18 04:36 51°18.04 2°41.6 11.7 303 15.4 101620 83
2009-06-18 04:37 51°18.147 2°41.351 12.3 327 15.4 101620 83
2009-06-18 04:38 51°18.256 2°41.099 14.1 325 15.4 101630 83
2009-06-18 04:39 51°18.366 2°40.859 12.4 325 15.4 101630 83
2009-06-18 04:40 51°18.48 2°40.612 12.6 326 15.3 101620 82
2009-06-18 04:41 51°18.59 2°40.372 14.2 325 15.3 101630 83
2009-06-18 04:42 51°18.703 2°40.127 13.7 327 15.3 101630 83
2009-06-18 04:43 51°18.816 2°39.882 13.7 327 15.3 101630 82
2009-06-18 04:44 51°18.931 2°39.634 13.2 327 15.3 101640 83
2009-06-18 04:45 51°19.039 2°39.392 12.6 324 15.3 101640 82
2009-06-18 04:46 51°19.15 2°39.146 11.1 329 15.3 101650 82
2009-06-18 04:47 51°19.264 2°38.897 11.9 327 15.3 101650 82
2009-06-18 04:48 51°19.371 2°38.653 11.9 327 15.3 101650 82
2009-06-18 04:49 51°19.48 2°38.406 12.8 325 15.3 101650 82
2009-06-18 04:50 51°19.589 2°38.16 13.1 327 15.3 101650 83
2009-06-18 04:51 51°19.698 2°37.916 12.4 327 15.3 101650 83
2009-06-18 04:52 51°19.809 2°37.673 11.2 329 15.3 101650 83
2009-06-18 04:53 51°19.922 2°37.428 10.9 327 15.2 101650 83
2009-06-18 04:54 51°20.035 2°37.184 12.5 302 15.2 101660 83
2009-06-18 04:55 51°20.146 2°36.941 11.6 302 15.2 101660 82
2009-06-18 04:56 51°20.255 2°36.697 11.3 284 15.2 101670 82
2009-06-18 04:57 51°20.365 2°36.454 10.7 328 15.2 101680 83
2009-06-18 04:58 51°20.476 2°36.208 12.7 327 15.2 101670 83
2009-06-18 04:59 51°20.588 2°35.964 13.4 326 15.2 101670 82
2009-06-18 05:00 51°20.699 2°35.719 11.9 329 15.2 101660 81
2009-06-18 05:01 51°20.811 2°35.472 13.5 280 15.1 101660 81
2009-06-18 05:02 51°20.923 2°35.226 14.2 328 15.1 101660 81
2009-06-18 05:03 51°21.038 2°34.981 11.6 328 15.1 101660 81
2009-06-18 05:04 51°21.154 2°34.738 12.1 330 15.1 101670 81
2009-06-18 05:05 51°21.296 2°34.536 11.7 304 15.1 101670 80
2009-06-18 05:06 51°21.455 2°34.36 13.1 323 15.1 101660 80
2009-06-18 05:07 51°21.618 2°34.209 13.6 306 15.1 101660 80
2009-06-18 05:08 51°21.782 2°34.059 13.9 302 15.1 101660 79
2009-06-18 05:09 51°21.949 2°33.92 14.2 306 15.2 101660 79
2009-06-18 05:10 51°22.108 2°33.785 12.3 323 15.1 101670 79
2009-06-18 05:11 51°22.265 2°33.637 11.5 304 15.2 101670 78
2009-06-18 05:12 51°22.425 2°33.481 12.5 301 15.2 101670 79
2009-06-18 05:13 51°22.582 2°33.333 12.2 304 15.2 101670 78
2009-06-18 05:14 51°22.746 2°33.181 14.3 304 15.2 101650 77
2009-06-18 05:15 51°22.907 2°33.031 14.1 324 15.2 101670 77
2009-06-18 05:16 51°23.065 2°32.882 11.9 302 15.2 101660 77
2009-06-18 05:17 51°23.228 2°32.73 14.2 323 15.3 101680 78
2009-06-18 05:18 51°23.394 2°32.578 12.7 305 15.2 101670 78
2009-06-18 05:19 51°23.555 2°32.432 13.1 302 15.2 101670 79
2009-06-18 05:20 51°23.716 2°32.286 12.1 307 15.2 101670 79
2009-06-18 05:21 51°23.88 2°32.139 12.5 302 15.2 101680 79
2009-06-18 05:22 51°24.037 2°31.996 13.5 303 15.1 101680 78
2009-06-18 05:23 51°24.206 2°31.871 10.8 308 15.1 101680 79
2009-06-18 05:24 51°24.386 2°31.809 13 310 15.2 101690 79
2009-06-18 05:25 51°24.57 2°31.778 13.7 307 15.1 101670 79
2009-06-18 05:26 51°24.726 2°31.73 9.7 305 15.1 101690 79
2009-06-18 05:27 51°24.806 2°31.731 7.6 307 15.1 101690 78
2009-06-18 05:28 51°24.864 2°31.723 9.1 307 15.1 101700 78
2009-06-18 05:29 51°24.906 2°31.728 6.2 307 15.1 101700 79
2009-06-18 05:30 51°24.935 2°31.72 8.3 325 15.1 101710 79
2009-06-18 05:31 51°24.955 2°31.672 7.2 330 15.1 101720 79
2009-06-18 05:32 51°24.983 2°31.644 8.1 310 15.1 101710 79
2009-06-18 05:33 51°25.004 2°31.644 5.8 302 15 101710 79
2009-06-18 05:34 51°25.017 2°31.65 6.8 309 15.1 101710 79
2009-06-18 05:35 51°25.027 2°31.659 8.2 306 15.1 101710 79
2009-06-18 05:36 51°25.034 2°31.673 6.3 308 15.1 101710 79
2009-06-18 05:37 51°25.037 2°31.691 7.5 302 15.1 101710 79
2009-06-18 05:38 51°25.038 2°31.711 6.3 304 15.1 101720 78
2009-06-18 05:39 51°25.038 2°31.731 7.3 303 15.2 101720 78
2009-06-18 05:40 51°25.037 2°31.75 7 305 15.3 101720 79
2009-06-18 05:41 51°25.036 2°31.771 5.9 301 15.4 101720 78
2009-06-18 05:42 51°25.036 2°31.791 6.4 309 15.6 101720 79
2009-06-18 05:43 51°25.037 2°31.811 7.2 310 15.6 101720 78
2009-06-18 05:44 51°25.038 2°31.833 8.2 305 15.6 101720 77
2009-06-18 05:45 51°25.044 2°31.858 6.5 308 15.6 101720 76
2009-06-18 05:46 51°25.066 2°31.908 5.3 303 15.7 101720 76
2009-06-18 05:47 51°25.075 2°31.991 4.6 57 15.6 101720 75
2009-06-18 05:48 51°25.059 2°32.053 4.7 52 15.4 101730 76
2009-06-18 05:49 51°25.042 2°32.093 5.7 41 15.3 101730 77
2009-06-18 05:50 51°25.028 2°32.12 6.3 34 15.2 101720 77
2009-06-18 05:51 51°25.012 2°32.142 5.7 31 15.1 101720 78
2009-06-18 05:52 51°24.983 2°32.162 5.5 28 15.1 101720 79
2009-06-18 05:53 51°24.941 2°32.201 3.9 38 15.1 101720 79
2009-06-18 05:54 51°24.9 2°32.261 4.2 40 15.1 101730 81
2009-06-18 05:55 51°24.869 2°32.32 5.1 41 15 101730 80
2009-06-18 05:56 51°24.845 2°32.369 5.2 37 14.9 101730 80
2009-06-18 05:57 51°24.82 2°32.414 4.4 31 14.9 101730 81
2009-06-18 05:58 51°24.788 2°32.481 3 52 14.9 101730 82
2009-06-18 05:59 51°24.757 2°32.565 3.6 34 14.9 101730 82
2009-06-18 06:00 51°24.719 2°32.667 2.7 51 14.9 101730 82
2009-06-18 06:01 51°24.675 2°32.79 3.3 83 14.9 101740 83
2009-06-18 06:02 51°24.651 2°32.893 2.1 57 14.9 101740 83
2009-06-18 06:03 51°24.642 2°32.961 4.3 58 15 101750 83
2009-06-18 06:04 51°24.637 2°33.003 4.9 45 15 101740 82
2009-06-18 06:05 51°24.635 2°33.035 4.9 38 15 101740 82
2009-06-18 06:06 51°24.617 2°33.06 5.7 12 14.9 101740 83
2009-06-18 06:07 51°24.581 2°33.053 5 2 14.9 101740 83
2009-06-18 06:08 51°24.557 2°33.01 6 347 14.8 101740 83
2009-06-18 06:09 51°24.546 2°32.95 7.3 278 14.8 101740 84
2009-06-18 06:10 51°24.54 2°32.912 6 345 14.7 101740 83
2009-06-18 06:11 51°24.538 2°32.9 6.8 348 14.7 101730 83
2009-06-18 06:12 51°24.538 2°32.918 7.1 346 14.7 101740 83
2009-06-18 06:13 51°24.537 2°32.946 5.1 357 14.6 101740 82
2009-06-18 06:14 51°24.536 2°32.978 5.9 5 14.7 101740 83
2009-06-18 06:15 51°24.531 2°33.003 5.4 6 14.6 101750 83
2009-06-18 06:16 51°24.523 2°32.989 7 339 14.6 101750 82
2009-06-18 06:17 51°24.54 2°32.948 6.3 343 14.7 101750 83
2009-06-18 06:18 51°24.539 2°32.92 6.8 350 14.7 101740 83
2009-06-18 06:19 51°24.542 2°32.902 5.7 333 14.7 101750 83
2009-06-18 06:20 51°24.55 2°32.888 7.2 347 14.7 101750 83
2009-06-18 06:21 51°24.543 2°32.884 6.1 6 14.7 101740 83
2009-06-18 06:22 51°24.538 2°32.905 6 21 14.8 101750 82
2009-06-18 06:23 51°24.541 2°32.943 6 25 14.7 101750 82
2009-06-18 06:24 51°24.546 2°32.982 5.7 32 14.8 101750 82
2009-06-18 06:25 51°24.55 2°33.023 6.1 32 14.8 101750 82
2009-06-18 06:26 51°24.55 2°33.062 6 32 14.8 101750 82
2009-06-18 06:27 51°24.533 2°33.082 5.9 4 14.8 101750 81
2009-06-18 06:28 51°24.524 2°33.04 9.1 341 14.8 101750 82
2009-06-18 06:29 51°24.538 2°32.956 9 347 14.8 101750 82
2009-06-18 06:30 51°24.541 2°32.883 6.7 339 14.8 101750 82
2009-06-18 06:31 51°24.555 2°32.862 6.5 336 14.8 101750 82
2009-06-18 06:32 51°24.568 2°32.859 7.3 344 14.8 101760 81
2009-06-18 06:33 51°24.57 2°32.86 5.5 5 14.8 101750 80
2009-06-18 06:34 51°24.558 2°32.865 5.9 6 14.8 101760 81
2009-06-18 06:35 51°24.545 2°32.865 6.8 360 14.8 101760 82
2009-06-18 06:36 51°24.537 2°32.876 5.5 5 14.8 101760 81
2009-06-18 06:37 51°24.537 2°32.909 7.1 10 14.8 101770 82
2009-06-18 06:38 51°24.538 2°32.948 6.2 15 14.7 101760 81
2009-06-18 06:39 51°24.53 2°32.966 5.7 357 14.8 101760 82
2009-06-18 06:40 51°24.529 2°32.949 8.3 336 14.8 101760 81
2009-06-18 06:41 51°24.536 2°32.921 7 357 14.8 101760 81
2009-06-18 06:42 51°24.53 2°32.9 8.6 349 14.8 101770 81
2009-06-18 06:43 51°24.528 2°32.901 7.3 354 14.7 101770 81
2009-06-18 06:44 51°24.526 2°32.909 7.8 343 14.7 101770 81
2009-06-18 06:45 51°24.54 2°32.893 6.6 330 14.7 101770 82
2009-06-18 06:46 51°24.555 2°32.901 6.2 328 14.8 101770 82
2009-06-18 06:47 51°24.563 2°32.936 5.3 330 14.8 101780 81
2009-06-18 06:48 51°24.574 2°32.938 7 355 14.9 101770 81
2009-06-18 06:49 51°24.569 2°32.948 4.5 6 14.8 101770 81
2009-06-18 06:50 51°24.565 2°32.973 5.6 8 14.8 101780 82
2009-06-18 06:51 51°24.563 2°33.008 5.3 8 14.8 101780 82
2009-06-18 06:52 51°24.564 2°33.044 5.8 10 14.7 101770 81
2009-06-18 06:53 51°24.566 2°33.084 6.3 9 14.8 101780 82
2009-06-18 06:54 51°24.57 2°33.131 6 16 14.7 101770 82
2009-06-18 06:55 51°24.576 2°33.177 5.5 20 14.8 101780 82
2009-06-18 06:56 51°24.563 2°33.208 5.9 360 14.8 101780 82
2009-06-18 06:57 51°24.557 2°33.164 6.3 335 14.8 101780 82
2009-06-18 06:58 51°24.582 2°33.151 6.5 307 14.9 101780 82
2009-06-18 06:59 51°24.62 2°33.176 7.3 307 14.9 101770 81
2009-06-18 07:00 51°24.648 2°33.222 7.2 308 15 101780 81
2009-06-18 07:01 51°24.672 2°33.269 6.5 304 15.1 101780 81
2009-06-18 07:02 51°24.691 2°33.313 5.5 309 15.1 101780 80
2009-06-18 07:03 51°24.707 2°33.356 6 303 15.2 101790 81
2009-06-18 07:04 51°24.721 2°33.396 7.3 307 15.3 101780 81
2009-06-18 07:05 51°24.732 2°33.44 6.8 306 15.3 101780 79
2009-06-18 07:06 51°24.742 2°33.483 6.3 305 15.4 101780 79
2009-06-18 07:07 51°24.756 2°33.526 7.3 306 15.4 101780 78
2009-06-18 07:08 51°24.794 2°33.497 9.8 341 15.3 101770 78
2009-06-18 07:09 51°24.761 2°33.36 8.6 348 15.2 101760 79
2009-06-18 07:10 51°24.688 2°33.194 9.6 350 15 101760 80
2009-06-18 07:11 51°24.618 2°33.02 9.3 347 14.8 101760 81
2009-06-18 07:12 51°24.561 2°32.836 10 345 14.7 101760 80
2009-06-18 07:13 51°24.503 2°32.65 9.3 347 14.7 101750 80
2009-06-18 07:14 51°24.448 2°32.471 10.7 345 14.7 101760 81
2009-06-18 07:15 51°24.392 2°32.282 10.8 344 14.7 101750 81
2009-06-18 07:16 51°24.338 2°32.098 9.8 346 14.6 101750 81
2009-06-18 07:17 51°24.29 2°31.903 9.6 344 14.6 101760 81
2009-06-18 07:18 51°24.242 2°31.706 10.1 346 14.6 101750 81
2009-06-18 07:19 51°24.196 2°31.508 10.5 345 14.6 101770 81
2009-06-18 07:20 51°24.15 2°31.307 8.8 344 14.6 101760 81
2009-06-18 07:21 51°24.112 2°31.145 8.8 349 14.6 101770 81
2009-06-18 07:22 51°24.086 2°31.047 7.7 349 14.6 101770 81
2009-06-18 07:23 51°24.058 2°30.939 7.9 350 14.6 101770 81
2009-06-18 07:24 51°24.025 2°30.817 9.4 349 14.6 101770 81
2009-06-18 07:25 51°23.984 2°30.664 10.2 349 14.6 101770 81
2009-06-18 07:26 51°23.937 2°30.492 9 346 14.6 101770 81
2009-06-18 07:27 51°23.885 2°30.328 8.5 349 14.6 101760 81
2009-06-18 07:28 51°23.836 2°30.158 7.9 347 14.6 101770 81
2009-06-18 07:29 51°23.791 2°29.994 8.2 351 14.6 101770 81
2009-06-18 07:30 51°23.768 2°29.901 7.1 350 14.6 101770 81
2009-06-18 07:31 51°23.757 2°29.853 7.6 355 14.5 101770 81
2009-06-18 07:32 51°23.749 2°29.826 5.9 356 14.5 101780 80
2009-06-18 07:33 51°23.741 2°29.799 6.3 351 14.5 101780 80
2009-06-18 07:34 51°23.736 2°29.777 6.6 10 14.5 101780 80
2009-06-18 07:35 51°23.733 2°29.793 5.6 21 14.6 101790 80
2009-06-18 07:36 51°23.738 2°29.823 5.6 25 14.7 101790 80
2009-06-18 07:37 51°23.746 2°29.858 6.1 34 14.7 101790 80
2009-06-18 07:38 51°23.753 2°29.894 5.6 36 14.7 101790 80
2009-06-18 07:39 51°23.745 2°29.923 6.3 10 14.8 101800 80
2009-06-18 07:40 51°23.731 2°29.9 8.3 350 14.8 101790 80
2009-06-18 07:41 51°23.739 2°29.802 8.1 338 14.7 101780 79
2009-06-18 07:42 51°23.758 2°29.754 7.3 345 14.7 101780 78
2009-06-18 07:43 51°23.756 2°29.728 6.8 12 14.7 101790 78
2009-06-18 07:44 51°23.748 2°29.739 5.5 16 14.7 101800 79
2009-06-18 07:45 51°23.745 2°29.763 5.8 16 14.7 101800 79
2009-06-18 07:46 51°23.747 2°29.789 6.7 14 14.7 101800 79
2009-06-18 07:47 51°23.752 2°29.82 5.6 15 14.7 101800 79
2009-06-18 07:48 51°23.76 2°29.855 5.8 17 14.7 101800 78
2009-06-18 07:49 51°23.769 2°29.892 5.9 14 14.8 101810 79
2009-06-18 07:50 51°23.764 2°29.912 6.4 4 14.7 101810 78
2009-06-18 07:51 51°23.751 2°29.873 6.8 341 14.7 101800 79
2009-06-18 07:52 51°23.746 2°29.794 8.9 348 14.7 101800 79
2009-06-18 07:53 51°23.749 2°29.751 5.4 333 14.6 101800 78
2009-06-18 07:54 51°23.757 2°29.782 5 302 14.7 101810 79
2009-06-18 07:55 51°23.769 2°29.797 6.6 338 14.8 101810 78
2009-06-18 07:56 51°23.756 2°29.756 5.8 16 14.8 101800 77
2009-06-18 07:57 51°23.739 2°29.764 4.8 20 14.8 101810 77
2009-06-18 07:58 51°23.737 2°29.789 5.2 21 14.8 101810 78
2009-06-18 07:59 51°23.743 2°29.82 4.9 22 14.8 101810 78
2009-06-18 08:00 51°23.755 2°29.856 3.8 24 14.8 101820 79
2009-06-18 08:01 51°23.77 2°29.893 4.3 28 14.8 101820 79
2009-06-18 08:02 51°23.781 2°29.928 4 25 14.9 101820 79
2009-06-18 08:03 51°23.764 2°29.935 5.2 355 14.9 101820 79
2009-06-18 08:04 51°23.757 2°29.891 6.6 348 14.8 101810 78
2009-06-18 08:05 51°23.743 2°29.833 6.8 344 14.7 101810 79
2009-06-18 08:06 51°23.734 2°29.786 5.7 352 14.6 101810 78
2009-06-18 08:07 51°23.729 2°29.774 4.9 356 14.6 101810 78
2009-06-18 08:08 51°23.732 2°29.783 4.4 353 14.6 101820 79
2009-06-18 08:09 51°23.74 2°29.807 5 351 14.6 101820 79
2009-06-18 08:10 51°23.749 2°29.841 4.9 357 14.5 101820 79
2009-06-18 08:11 51°23.749 2°29.861 5.2 354 14.6 101820 80
2009-06-18 08:12 51°23.746 2°29.824 7 341 14.6 101810 79
2009-06-18 08:13 51°23.741 2°29.793 5.5 1 14.6 101820 79
2009-06-18 08:14 51°23.73 2°29.789 6.1 356 14.6 101820 78
2009-06-18 08:15 51°23.732 2°29.764 5.6 331 14.6 101820 79
2009-06-18 08:16 51°23.748 2°29.762 4.6 333 14.7 101820 79
2009-06-18 08:17 51°23.762 2°29.782 4.8 329 14.8 101820 78
2009-06-18 08:18 51°23.778 2°29.799 5.6 333 14.9 101820 77
2009-06-18 08:19 51°23.786 2°29.798 6.2 360 14.9 101810 75
2009-06-18 08:20 51°23.774 2°29.775 5.6 349 14.8 101820 77
2009-06-18 08:21 51°23.756 2°29.744 5.5 8 14.7 101810 77
2009-06-18 08:22 51°23.738 2°29.755 4.6 19 14.7 101820 77
2009-06-18 08:23 51°23.74 2°29.782 5.3 21 14.7 101820 77
2009-06-18 08:24 51°23.746 2°29.813 5.4 19 14.7 101820 77
2009-06-18 08:25 51°23.755 2°29.846 5 18 14.8 101820 77
2009-06-18 08:26 51°23.765 2°29.88 4.9 21 14.8 101830 76
2009-06-18 08:27 51°23.777 2°29.916 4.7 26 14.8 101820 76
2009-06-18 08:28 51°23.79 2°29.952 4.9 28 14.8 101830 76
2009-06-18 08:29 51°23.791 2°29.98 4.8 8 14.8 101830 75
2009-06-18 08:30 51°23.765 2°29.957 7.1 351 14.8 101830 76
2009-06-18 08:31 51°23.747 2°29.865 7.9 340 14.7 101820 76
2009-06-18 08:32 51°23.736 2°29.777 6.4 350 14.7 101820 76
2009-06-18 08:33 51°23.739 2°29.737 5.1 344 14.7 101820 77
2009-06-18 08:34 51°23.751 2°29.752 4.9 353 14.6 101830 77
2009-06-18 08:35 51°23.754 2°29.76 4.2 -999 14.6 101830 77
2009-06-18 08:36 51°23.746 2°29.767 4.8 14 14.6 101830 77
2009-06-18 08:37 51°23.743 2°29.788 5.1 15 14.7 101830 78
2009-06-18 08:38 51°23.746 2°29.812 4.7 10 14.7 101840 77
2009-06-18 08:39 51°23.752 2°29.838 5.2 9 14.7 101840 78
2009-06-18 08:40 51°23.76 2°29.865 4.9 10 14.7 101840 78
2009-06-18 08:41 51°23.767 2°29.892 4.3 2 14.7 101840 78
2009-06-18 08:42 51°23.76 2°29.873 6.1 340 14.7 101830 79
2009-06-18 08:43 51°23.744 2°29.817 6.2 360 14.6 101830 78
2009-06-18 08:44 51°23.732 2°29.772 5.6 341 14.6 101830 77
2009-06-18 08:45 51°23.745 2°29.747 6.1 337 14.6 101830 78
2009-06-18 08:46 51°23.758 2°29.786 4.9 334 14.8 101830 77
2009-06-18 08:47 51°23.764 2°29.782 5.7 357 14.8 101830 75
2009-06-18 08:48 51°23.748 2°29.776 5.8 7 14.8 101830 78
2009-06-18 08:49 51°23.74 2°29.79 4.8 16 14.7 101830 78
2009-06-18 08:50 51°23.739 2°29.815 5.2 22 14.7 101830 78
2009-06-18 08:51 51°23.744 2°29.843 4.7 18 14.7 101830 77
2009-06-18 08:52 51°23.755 2°29.877 4.3 18 14.7 101830 77
2009-06-18 08:53 51°23.761 2°29.906 4.2 5 14.8 101820 78
2009-06-18 08:54 51°23.758 2°29.907 5.3 348 14.7 101810 76
2009-06-18 08:55 51°23.75 2°29.877 5.9 351 14.7 101810 77
2009-06-18 08:56 51°23.741 2°29.819 6.5 345 14.6 101810 77
2009-06-18 08:57 51°23.732 2°29.767 5.3 357 14.6 101810 76
2009-06-18 08:58 51°23.736 2°29.782 4.5 4 14.6 101820 77
2009-06-18 08:59 51°23.742 2°29.806 4 7 14.6 101820 77
2009-06-18 09:00 51°23.747 2°29.835 4.4 17 14.6 101820 77
2009-06-18 09:01 51°23.754 2°29.865 4.1 20 14.6 101830 77
2009-06-18 09:02 51°23.761 2°29.899 3.8 17 14.7 101830 78
2009-06-18 09:03 51°23.765 2°29.932 4.4 10 14.8 101830 77
2009-06-18 09:04 51°23.755 2°29.928 4.2 344 14.8 101830 76
2009-06-18 09:05 51°23.745 2°29.868 6.3 339 14.7 101820 77
2009-06-18 09:06 51°23.748 2°29.8 6 337 14.8 101830 78
2009-06-18 09:07 51°23.745 2°29.759 4.7 353 14.8 101820 76
2009-06-18 09:08 51°23.738 2°29.763 4.2 6 14.7 101820 75
2009-06-18 09:09 51°23.735 2°29.784 3.3 14 14.7 101820 76
2009-06-18 09:10 51°23.739 2°29.814 3.2 14 14.7 101820 76
2009-06-18 09:11 51°23.748 2°29.847 3.2 18 14.8 101820 76
2009-06-18 09:12 51°23.761 2°29.883 3.4 23 14.8 101820 75
2009-06-18 09:13 51°23.778 2°29.918 3.7 20 14.9 101820 77
2009-06-18 09:14 51°23.767 2°29.945 4.5 349 15 101830 76
2009-06-18 09:15 51°23.756 2°29.928 4.2 334 14.8 101820 74
2009-06-18 09:16 51°23.753 2°29.899 4.8 346 14.9 101820 76
2009-06-18 09:17 51°23.741 2°29.869 5.6 337 14.9 101820 75
2009-06-18 09:18 51°23.747 2°29.822 5.4 338 14.9 101820 74
2009-06-18 09:19 51°23.737 2°29.782 4.8 337 14.9 101820 74
2009-06-18 09:20 51°23.738 2°29.74 5 338 14.9 101820 75
2009-06-18 09:21 51°23.743 2°29.73 3.5 343 15 101820 74
2009-06-18 09:22 51°23.745 2°29.73 3.7 348 15 101820 74
2009-06-18 09:23 51°23.745 2°29.742 3.4 -999 14.9 101820 75
2009-06-18 09:24 51°23.744 2°29.764 3.3 5 14.8 101820 76
2009-06-18 09:25 51°23.743 2°29.79 3.2 9 14.8 101820 77
2009-06-18 09:26 51°23.748 2°29.82 3.7 10 14.7 101820 77
2009-06-18 09:27 51°23.761 2°29.856 3.3 15 14.7 101830 76
2009-06-18 09:28 51°23.778 2°29.894 3.2 18 14.8 101830 76
2009-06-18 09:29 51°23.799 2°29.929 3 30 14.9 101830 77
2009-06-18 09:30 51°23.797 2°29.962 3.4 359 14.9 101830 76
2009-06-18 09:31 51°23.781 2°29.949 4.9 332 14.9 101830 77
2009-06-18 09:32 51°23.806 2°29.909 4.1 303 14.9 101830 76
2009-06-18 09:33 51°23.868 2°29.928 3.9 304 15 101830 76
2009-06-18 09:34 51°23.934 2°30.011 2 303 15.1 101830 75
2009-06-18 09:35 51°24 2°30.12 1.8 303 15.3 101830 75
2009-06-18 09:36 51°24.068 2°30.232 2.6 308 15.4 101840 75
2009-06-18 09:37 51°24.138 2°30.345 1.9 303 15.5 101840 74
2009-06-18 09:38 51°24.208 2°30.458 1.8 300 15.5 101840 73
2009-06-18 09:39 51°24.278 2°30.572 1.7 310 15.6 101840 73
2009-06-18 09:40 51°24.348 2°30.685 1.7 310 15.6 101830 73
2009-06-18 09:41 51°24.419 2°30.797 1.8 308 15.6 101830 73
2009-06-18 09:42 51°24.49 2°30.908 2 308 15.7 101830 73
2009-06-18 09:43 51°24.558 2°31.011 2.8 65 15.8 101830 73
2009-06-18 09:44 51°24.611 2°31.092 2.7 60 15.7 101830 71
2009-06-18 09:45 51°24.656 2°31.156 2.9 58 15.6 101830 71
2009-06-18 09:46 51°24.696 2°31.213 2.7 52 15.5 101830 72
2009-06-18 09:47 51°24.733 2°31.268 2.8 60 15.4 101830 72
2009-06-18 09:48 51°24.768 2°31.32 3.2 59 15.4 101830 73
2009-06-18 09:49 51°24.795 2°31.394 3.2 41 15.3 101830 73
2009-06-18 09:50 51°24.789 2°31.465 4.4 18 15.3 101830 73
2009-06-18 09:51 51°24.771 2°31.498 3.8 7 15.2 101830 74
2009-06-18 09:52 51°24.766 2°31.524 4.4 9 15.1 101830 74
2009-06-18 09:53 51°24.769 2°31.551 3.5 8 15.1 101830 78
2009-06-18 09:54 51°24.781 2°31.578 3.5 9 15.1 101840 79
2009-06-18 09:55 51°24.798 2°31.603 3.3 22 15.1 101840 80
2009-06-18 09:56 51°24.819 2°31.625 4 34 15 101840 80
2009-06-18 09:57 51°24.839 2°31.644 3.5 36 15 101840 80
2009-06-18 09:58 51°24.857 2°31.665 2.7 41 15 101840 81
2009-06-18 09:59 51°24.874 2°31.688 2.9 56 15 101840 81
2009-06-18 10:00 51°24.89 2°31.712 3.6 53 15 101850 81
2009-06-18 10:01 51°24.905 2°31.739 3.5 43 14.9 101850 81
2009-06-18 10:02 51°24.919 2°31.766 3.5 42 14.9 101850 81
2009-06-18 10:03 51°24.931 2°31.791 3.2 29 14.9 101840 82
2009-06-18 10:04 51°24.943 2°31.814 3.8 24 14.9 101850 82
2009-06-18 10:05 51°24.956 2°31.839 3.3 26 14.9 101850 81
2009-06-18 10:06 51°24.969 2°31.864 3.3 29 14.9 101850 81
2009-06-18 10:07 51°24.984 2°31.89 3 25 14.8 101850 80
2009-06-18 10:08 51°24.999 2°31.916 3.1 22 14.8 101850 80
2009-06-18 10:09 51°25.015 2°31.942 2.9 28 14.9 101850 80
2009-06-18 10:10 51°25.031 2°31.968 3.3 24 14.9 101850 80
2009-06-18 10:11 51°25.047 2°31.992 3.4 29 14.9 101850 80
2009-06-18 10:12 51°25.064 2°32.017 2.7 29 14.9 101840 80
2009-06-18 10:13 51°25.081 2°32.041 3.3 34 15 101840 79
2009-06-18 10:14 51°25.097 2°32.065 3.2 31 15 101840 80
2009-06-18 10:15 51°25.112 2°32.092 3.7 25 15 101840 79
2009-06-18 10:16 51°25.107 2°32.129 3.7 1 15 101840 79
2009-06-18 10:17 51°25.087 2°32.135 4.2 341 15 101830 79
2009-06-18 10:18 51°25.06 2°32.089 5.8 343 14.9 101840 79
2009-06-18 10:19 51°25.007 2°32.005 7 339 15.1 101830 79
2009-06-18 10:20 51°24.948 2°31.907 7.5 333 15.2 101830 80
2009-06-18 10:21 51°24.889 2°31.8 6.5 336 15.2 101840 80
2009-06-18 10:22 51°24.831 2°31.694 5.7 336 15.2 101830 82
2009-06-18 10:23 51°24.796 2°31.648 4.4 354 15.2 101830 82
2009-06-18 10:24 51°24.791 2°31.668 4.3 11 15.1 101840 82
2009-06-18 10:25 51°24.792 2°31.7 3.5 26 14.9 101850 82
2009-06-18 10:26 51°24.796 2°31.73 3.8 25 14.8 101840 83
2009-06-18 10:27 51°24.801 2°31.761 4.1 25 14.8 101850 83
2009-06-18 10:28 51°24.808 2°31.79 4.3 24 14.8 101850 83
2009-06-18 10:29 51°24.817 2°31.818 3.8 19 14.8 101840 83
2009-06-18 10:30 51°24.825 2°31.843 3.8 12 14.8 101840 83
2009-06-18 10:31 51°24.834 2°31.867 4.9 8 14.7 101840 83
2009-06-18 10:32 51°24.844 2°31.89 4.4 11 14.7 101840 83
2009-06-18 10:33 51°24.854 2°31.914 3.4 10 14.7 101840 83
2009-06-18 10:34 51°24.864 2°31.938 3.8 15 14.6 101830 83
2009-06-18 10:35 51°24.873 2°31.961 3.5 18 14.6 101840 84
2009-06-18 10:36 51°24.884 2°31.984 3.9 20 14.7 101840 84
2009-06-18 10:37 51°24.894 2°32.007 3.9 25 14.7 101840 83
2009-06-18 10:38 51°24.893 2°32.035 4.4 12 14.7 101840 84
2009-06-18 10:39 51°24.864 2°32.055 4.3 353 14.7 101840 84
2009-06-18 10:40 51°24.817 2°32.014 4.8 337 14.7 101840 84
2009-06-18 10:41 51°24.779 2°31.917 6.7 301 14.8 101830 84
2009-06-18 10:42 51°24.765 2°31.793 6.5 327 14.8 101820 83
2009-06-18 10:43 51°24.759 2°31.675 5.1 308 14.9 101810 83
2009-06-18 10:44 51°24.771 2°31.64 3.3 309 15 101820 83
2009-06-18 10:45 51°24.782 2°31.633 4.3 308 15.1 101810 82
2009-06-18 10:46 51°24.793 2°31.633 3.1 310 15.1 101820 82
2009-06-18 10:47 51°24.805 2°31.64 3.7 303 15.1 101810 81
2009-06-18 10:48 51°24.819 2°31.652 3.6 307 15.2 101810 81
2009-06-18 10:49 51°24.833 2°31.67 3.6 303 15.3 101820 81
2009-06-18 10:50 51°24.846 2°31.692 3.5 301 15.3 101820 81
2009-06-18 10:51 51°24.857 2°31.716 2.7 309 15.4 101820 81
2009-06-18 10:52 51°24.868 2°31.739 3.9 51 15.5 101820 80
2009-06-18 10:53 51°24.877 2°31.76 3.3 58 15.4 101820 79
2009-06-18 10:54 51°24.888 2°31.782 3.7 56 15.3 101820 79
2009-06-18 10:55 51°24.898 2°31.803 3.6 57 15.2 101830 79
2009-06-18 10:56 51°24.926 2°31.823 4.1 302 15.2 101820 80
2009-06-18 10:57 51°24.965 2°31.78 5.1 304 15.2 101820 81
2009-06-18 10:58 51°24.962 2°31.734 4.7 338 15.3 101830 81
2009-06-18 10:59 51°24.944 2°31.726 4.9 348 15.2 101830 79
2009-06-18 11:00 51°24.913 2°31.707 5.4 336 15 101830 80
2009-06-18 11:01 51°24.85 2°31.667 6.7 336 15.1 101830 81
2009-06-18 11:02 51°24.807 2°31.624 4.9 336 15.1 101840 81
2009-06-18 11:03 51°24.778 2°31.595 4.8 352 15.1 101840 81
2009-06-18 11:04 51°24.776 2°31.601 3.7 360 14.9 101850 80
2009-06-18 11:05 51°24.772 2°31.609 4.6 346 14.8 101850 82
2009-06-18 11:06 51°24.756 2°31.591 4.4 330 14.8 101850 83
2009-06-18 11:07 51°24.751 2°31.547 5.6 308 14.9 101850 83
2009-06-18 11:08 51°24.755 2°31.526 5.2 304 15 101850 82
2009-06-18 11:09 51°24.765 2°31.516 4 300 15 101840 81
2009-06-18 11:10 51°24.777 2°31.512 3.7 302 15.1 101840 81
2009-06-18 11:11 51°24.79 2°31.513 4 309 15.2 101840 81
2009-06-18 11:12 51°24.804 2°31.518 4.8 308 15.3 101850 80
2009-06-18 11:13 51°24.818 2°31.525 4.3 306 15.4 101850 80
2009-06-18 11:14 51°24.851 2°31.516 4.9 304 15.5 101850 80
2009-06-18 11:15 51°24.882 2°31.509 4.6 307 15.6 101850 79
2009-06-18 11:16 51°24.908 2°31.511 4.7 306 15.7 101850 79
2009-06-18 11:17 51°24.932 2°31.522 2.5 308 15.7 101850 78
2009-06-18 11:18 51°24.954 2°31.536 3.6 307 15.8 101850 78
2009-06-18 11:19 51°24.973 2°31.548 3.9 309 15.8 101850 78
2009-06-18 11:20 51°24.989 2°31.56 4.1 302 15.8 101850 77
2009-06-18 11:21 51°25.002 2°31.571 5.1 308 15.8 101840 77
2009-06-18 11:22 51°25.014 2°31.584 5.4 304 15.8 101850 78
2009-06-18 11:23 51°25.026 2°31.599 4.5 304 15.7 101850 78
2009-06-18 11:24 51°25.036 2°31.615 4.4 309 15.7 101850 77
2009-06-18 11:25 51°25.045 2°31.632 5.3 306 15.7 101850 78
2009-06-18 11:26 51°25.055 2°31.65 6.2 308 15.7 101850 79
2009-06-18 11:27 51°25.062 2°31.668 3.2 306 15.6 101850 79
2009-06-18 11:28 51°25.07 2°31.685 3.4 303 15.7 101850 80
2009-06-18 11:29 51°25.076 2°31.702 3 306 15.6 101850 80
2009-06-18 11:30 51°25.083 2°31.719 2.5 307 15.6 101850 80
2009-06-18 11:31 51°25.088 2°31.736 3.4 308 15.5 101860 80
2009-06-18 11:32 51°25.095 2°31.754 3.8 305 15.4 101850 81
2009-06-18 11:33 51°25.1 2°31.77 4.2 304 15.4 101860 81
2009-06-18 11:34 51°25.103 2°31.785 4.5 304 15.4 101850 82
2009-06-18 11:35 51°25.105 2°31.8 5 57 15.3 101850 82
2009-06-18 11:36 51°25.115 2°31.816 3.5 53 15.2 101850 82
2009-06-18 11:37 51°25.145 2°31.883 3 32 15.1 101850 82
2009-06-18 11:38 51°25.129 2°31.955 5 12 15.1 101850 82
2009-06-18 11:39 51°25.11 2°31.991 4.3 16 15 101850 83
2009-06-18 11:40 51°25.098 2°32.02 4.2 19 15 101850 84
2009-06-18 11:41 51°25.09 2°32.044 3.6 23 14.9 101850 85
2009-06-18 11:42 51°25.086 2°32.063 3.3 23 14.9 101850 85
2009-06-18 11:43 51°25.083 2°32.081 4 25 15 101850 86
2009-06-18 11:44 51°25.083 2°32.097 4.1 21 14.9 101840 85
2009-06-18 11:45 51°25.083 2°32.11 4.3 20 15 101840 85
2009-06-18 11:46 51°25.084 2°32.124 4.1 20 15 101840 85
2009-06-18 11:47 51°25.085 2°32.137 4.4 20 15 101840 86
2009-06-18 11:48 51°25.087 2°32.15 4.1 20 15 101840 85
2009-06-18 11:49 51°25.088 2°32.162 4.3 19 15 101840 86
2009-06-18 11:50 51°25.089 2°32.174 4.2 20 15 101840 86
2009-06-18 11:51 51°25.091 2°32.186 3.8 21 15 101840 85
2009-06-18 11:52 51°25.092 2°32.198 4.6 22 14.9 101840 86
2009-06-18 11:53 51°25.094 2°32.21 4.3 20 14.9 101840 85
2009-06-18 11:54 51°25.096 2°32.222 4.2 21 14.9 101840 86
2009-06-18 11:55 51°25.097 2°32.233 4 21 14.9 101840 85
2009-06-18 11:56 51°25.097 2°32.244 4.2 21 14.9 101840 86
2009-06-18 11:57 51°25.088 2°32.258 4.5 9 14.9 101850 86
2009-06-18 11:58 51°25.064 2°32.272 4 6 14.9 101840 85
2009-06-18 11:59 51°25.038 2°32.281 3.9 6 14.8 101840 86
2009-06-18 12:00 51°25.012 2°32.285 3.4 3 14.8 101840 86
2009-06-18 12:01 51°24.985 2°32.288 4 1 14.7 101830 86
2009-06-18 12:02 51°24.963 2°32.291 4 2 14.7 101830 86
2009-06-18 12:03 51°24.944 2°32.292 3.9 2 14.7 101830 86
2009-06-18 12:04 51°24.927 2°32.294 3.8 5 14.6 101830 86
2009-06-18 12:05 51°24.91 2°32.297 4 4 14.7 101830 86
2009-06-18 12:06 51°24.895 2°32.3 3 5 14.7 101830 86
2009-06-18 12:07 51°24.88 2°32.302 3.7 8 14.7 101820 86
2009-06-18 12:08 51°24.867 2°32.302 3.4 7 14.7 101810 86
2009-06-18 12:09 51°24.854 2°32.301 4.4 9 14.8 101820 86
2009-06-18 12:10 51°24.802 2°32.3 4.2 7 14.8 101820 86
2009-06-18 12:11 51°24.731 2°32.43 1.9 4 14.8 101820 86
2009-06-18 12:12 51°24.646 2°32.625 3.4 351 14.9 101820 85
2009-06-18 12:13 51°24.539 2°32.861 4 354 14.9 101820 85
2009-06-18 12:14 51°24.424 2°33.111 4.3 352 14.8 101820 86
2009-06-18 12:15 51°24.309 2°33.366 4.6 348 14.7 101830 85
2009-06-18 12:16 51°24.192 2°33.622 5.2 352 14.7 101820 86
2009-06-18 12:17 51°24.075 2°33.878 4 351 14.7 101830 86
2009-06-18 12:18 51°23.958 2°34.131 4 353 14.7 101820 86
2009-06-18 12:19 51°23.845 2°34.374 4.3 350 14.7 101830 85
2009-06-18 12:20 51°23.732 2°34.615 3.5 353 14.7 101830 85
2009-06-18 12:21 51°23.617 2°34.853 3.6 353 14.7 101830 85
2009-06-18 12:22 51°23.5 2°35.091 4.9 354 14.7 101830 84
2009-06-18 12:23 51°23.34 2°35.251 5.5 353 14.8 101820 85
2009-06-18 12:24 51°23.157 2°35.363 5.1 354 14.8 101810 84
2009-06-18 12:25 51°22.975 2°35.478 5.1 356 14.7 101810 84
2009-06-18 12:26 51°22.794 2°35.597 5.6 353 14.8 101820 83
2009-06-18 12:27 51°22.616 2°35.722 5.7 352 14.8 101820 83
2009-06-18 12:28 51°22.441 2°35.851 5.3 355 14.8 101820 82
2009-06-18 12:29 51°22.265 2°35.976 6.2 352 14.8 101820 83
2009-06-18 12:30 51°22.087 2°36.1 5.6 356 14.8 101820 82
2009-06-18 12:31 51°21.907 2°36.224 6.1 354 14.9 101810 84
2009-06-18 12:32 51°21.729 2°36.357 4.5 359 14.9 101810 85
2009-06-18 12:33 51°21.564 2°36.524 4.8 358 14.9 101820 85
2009-06-18 12:34 51°21.429 2°36.742 3.4 356 14.9 101830 84
2009-06-18 12:35 51°21.308 2°36.972 2.9 354 14.8 101820 83
2009-06-18 12:36 51°21.188 2°37.199 3.3 -999 14.9 101830 84
2009-06-18 12:37 51°21.064 2°37.422 3.1 356 15 101830 85
2009-06-18 12:38 51°20.94 2°37.648 3.9 357 15 101830 85
2009-06-18 12:39 51°20.814 2°37.87 3.5 359 15 101830 85
2009-06-18 12:40 51°20.685 2°38.096 3.8 360 15 101830 85
2009-06-18 12:41 51°20.555 2°38.322 4 355 15 101830 85
2009-06-18 12:42 51°20.424 2°38.548 3.5 355 15 101820 84
2009-06-18 12:43 51°20.298 2°38.776 3.6 356 15 101830 84
2009-06-18 12:44 51°20.172 2°39.002 3.4 358 15 101820 84
2009-06-18 12:45 51°20.045 2°39.227 3.6 357 15 101820 83
2009-06-18 12:46 51°19.918 2°39.448 3.5 358 15 101830 84
2009-06-18 12:47 51°19.789 2°39.667 4.3 352 15 101830 84
2009-06-18 12:48 51°19.654 2°39.886 4.5 354 15 101830 83
2009-06-18 12:49 51°19.524 2°40.108 3.4 354 15 101830 82
2009-06-18 12:50 51°19.393 2°40.329 4.9 356 15 101840 82
2009-06-18 12:51 51°19.262 2°40.54 3.6 357 15.1 101830 83
2009-06-18 12:52 51°19.131 2°40.754 4.5 359 15 101830 84
2009-06-18 12:53 51°18.999 2°40.973 3.5 2 15 101840 83
2009-06-18 12:54 51°18.869 2°41.193 3.7 355 15.1 101840 83
2009-06-18 12:55 51°18.741 2°41.414 2.7 1 15.1 101830 83
2009-06-18 12:56 51°18.615 2°41.634 3 1 15.1 101840 83
2009-06-18 12:57 51°18.485 2°41.85 3.1 3 15.1 101830 84
2009-06-18 12:58 51°18.357 2°42.067 3.5 2 15.1 101830 84
2009-06-18 12:59 51°18.226 2°42.284 3.6 358 15.1 101830 84
2009-06-18 13:00 51°18.093 2°42.504 3.6 351 15.1 101830 84
2009-06-18 13:01 51°17.961 2°42.725 4.4 353 15.2 101830 85
2009-06-18 13:02 51°17.841 2°42.958 4.2 1 15.1 101830 84
2009-06-18 13:03 51°17.727 2°43.19 3 1 15.1 101830 83
2009-06-18 13:04 51°17.615 2°43.416 3.3 3 15.1 101830 84
2009-06-18 13:05 51°17.495 2°43.645 4 356 15.2 101840 84
2009-06-18 13:06 51°17.373 2°43.875 3.5 354 15.1 101830 83
2009-06-18 13:07 51°17.254 2°44.112 3 353 15.1 101830 83
2009-06-18 13:08 51°17.133 2°44.349 3 349 15.1 101830 83
2009-06-18 13:09 51°17.018 2°44.589 3 356 15.2 101830 84
2009-06-18 13:10 51°16.896 2°44.825 4.5 358 15.2 101840 84
2009-06-18 13:11 51°16.775 2°45.062 3.8 354 15.2 101840 83
2009-06-18 13:12 51°16.661 2°45.308 4.1 353 15.2 101840 83
2009-06-18 13:13 51°16.55 2°45.559 3.5 350 15.1 101840 82
2009-06-18 13:14 51°16.442 2°45.809 2.7 345 15.2 101840 81
2009-06-18 13:15 51°16.335 2°46.06 3.5 348 15.2 101840 83
2009-06-18 13:16 51°16.244 2°46.324 2.8 350 15.2 101840 81
2009-06-18 13:17 51°16.176 2°46.604 2.1 345 15.2 101840 82
2009-06-18 13:18 51°16.111 2°46.887 3.2 350 15.2 101840 81
2009-06-18 13:19 51°16.044 2°47.169 2.7 348 15.3 101840 81
2009-06-18 13:20 51°15.978 2°47.451 3.4 347 15.3 101840 82
2009-06-18 13:21 51°15.912 2°47.73 2 348 15.5 101840 83
2009-06-18 13:22 51°15.841 2°48.004 2.8 339 15.5 101840 83
2009-06-18 13:23 51°15.779 2°48.281 2.4 335 15.7 101840 82
2009-06-18 13:24 51°15.723 2°48.56 3.3 344 15.8 101840 81
2009-06-18 13:25 51°15.666 2°48.836 2.4 345 15.7 101830 79
2009-06-18 13:26 51°15.61 2°49.112 2 334 15.7 101830 80
2009-06-18 13:27 51°15.553 2°49.391 3 330 15.8 101830 80
2009-06-18 13:28 51°15.505 2°49.67 3.3 334 16 101830 80
2009-06-18 13:29 51°15.46 2°49.952 3 335 16 101830 78
2009-06-18 13:30 51°15.42 2°50.236 1.7 334 16.1 101830 76
2009-06-18 13:31 51°15.382 2°50.522 1.7 331 16.1 101840 76
2009-06-18 13:32 51°15.351 2°50.808 2.1 332 16.2 101840 77
2009-06-18 13:33 51°15.327 2°51.094 2 336 16.4 101830 77
2009-06-18 13:34 51°15.298 2°51.381 1.7 305 16.4 101840 74
2009-06-18 13:35 51°15.259 2°51.663 2 337 16.5 101840 75
2009-06-18 13:36 51°15.192 2°51.934 2.2 342 16.6 101840 74
2009-06-18 13:37 51°15.112 2°52.198 2.1 346 16.6 101840 73
2009-06-18 13:38 51°15.032 2°52.463 1.4 353 16.4 101840 73
2009-06-18 13:39 51°14.955 2°52.725 1.7 345 16.4 101840 75
2009-06-18 13:40 51°14.885 2°52.989 2.1 348 16.4 101840 76
2009-06-18 13:41 51°14.823 2°53.257 1.9 347 16.4 101840 75
2009-06-18 13:42 51°14.758 2°53.522 2.2 347 16.3 101840 76
2009-06-18 13:43 51°14.692 2°53.787 2.3 353 16.2 101850 77
2009-06-18 13:44 51°14.624 2°54.053 1.5 356 16.1 101840 77
2009-06-18 13:45 51°14.556 2°54.319 1.8 346 16 101840 78
2009-06-18 13:46 51°14.483 2°54.58 2 351 16 101840 79
2009-06-18 13:47 51°14.409 2°54.837 1.8 354 16 101840 78
2009-06-18 13:48 51°14.333 2°55.099 3.5 357 16 101840 77
2009-06-18 13:49 51°14.228 2°55.307 2.4 356 16 101840 78
2009-06-18 13:50 51°14.102 2°55.426 3.1 354 16 101830 77
2009-06-18 13:51 51°13.976 2°55.519 2.2 346 16.2 101830 76
2009-06-18 13:52 51°13.875 2°55.592 0.3 18 16.4 101840 75
2009-06-18 13:53 51°13.781 2°55.68 2.2 23 16.5 101830 75
2009-06-18 13:54 51°13.718 2°55.778 1.2 57 16.7 101830 74